Regional Weather Roundup
Issued by NWS

Home | Current Version | Previous Version | Text Only | Print | Product List | Glossary On
Versions: 1 2 3 4 5 6 7 8 9 10 11 12 13 14 15 16 17 18 19 20 21 22 23 24 25 26 27 28 29 30 31 32 33 34 35 36 37 38 39 40 41 42 43 44 45 46 47 48 49 50
000
ASUS42 KKEY 271310
RWRKEY

FLORIDA REGIONAL WEATHER ROUNDUP FOR THE FLORIDA KEYS
NATIONAL WEATHER SERVICE KEY WEST FLORIDA
900 AM EDT FRI MAR 27 2015

...SOUTH FLORIDA AND THE KEYS...

CITY           SKY/WX    TMP DP  RH WIND       PRES   REMARKS
FORT MYERS     CLOUDY    75  73  93 S13       29.87F FOG
SW REGIONAL AP CLOUDY    76  72  87 SW10      29.89R FOG
NAPLES         CLOUDY    78  73  84 S10       29.91S HAZE
MIAMI          MOSUNNY   79  72  79 S9        29.95R
WEST KENDALL   SUNNY     78  73  84 S7        29.95S
HOMESTEAD      MOSUNNY   77  73  89 S5        29.95S
MARATHON       PTSUNNY   82  76  81 SW7       29.97R
BOCA CHICA NAS MOSUNNY   80  72  76 SW10      29.97R
KEY WEST INTL  SUNNY     80  73  79 SW8       29.97R

...INTERNATIONAL WEATHER...

CITY           SKY/WX    TMP DP  RH WIND       PRES   REMARKS
NASSAU BAHAMAS PTSUNNY  N/A N/A N/A S6        30.02R
CANCUN MEXICO  PTSUNNY   81  73  78 S8        29.93R
COZUMEL MEXICO MOSUNNY   73  72  94 SE3       29.94R

ADJACENT COASTAL WATERS...

STATION/POSITION TIME  SKY/WX   TEMP    WIND        PRES    WAVE
                                AIR SEA DIR/SP/G            HT/PER
                 (UTC)          (F)     (DEG/KT/KT) (MB)    (FT/S)
PULASKI SHOAL LI 1200            78     220/  8/  8 1013.8R
SAND KEY         1250            78     220/  6/  7 1014.8R
SOMBRERO KEY     1300            79     240/ 13/ 14 1015.5R
LONG KEY         1300            80 81  270/  9/ 11 1015.6R
MOLASSES REEF    1300            78 78  220/ 12/ 13 1014.8R
FOWEY ROCKS      NOT AVBL

$$


USA.gov is the U.S. government's official web portal to all federal, state and local government web resources and services.